SCP
0 0 0 0 0 0 0 0 0 0 0 0 0 0 0 0 0 0 0 0 0 0 0 0 0 0 1 1 1 1 1 1 1 1 1 1 1 1 1 0 0 0 0 0
0 0 0 0 0 0 0 0 0 0 0 0 0 0 0 0 0 0 0 0 0 0 0 0 0 0 1 1 1 1 1 1 1 1 1 1 1 1 1 0 0 0 0 0
0 0 0 0 0 0 0 0 0 0 0 0 0 0 0 0 0 0 0 0 0 0 0 0 0 0 0 1 1 1 1 1 1 1 1 1 1 1 1 1 0 0 0 0
0 0 0 0 0 0 0 0 0 0 0 0 0 0 0 0 0 0 0 0 0 0 0 0 0 0 0 0 0 1 1 1 1 1 1 1 1 1 1 1 1 0 0 0
0 0 0 0 0 0 0 0 0 0 0 0 0 0 0 0 0 0 0 0 0 0 0 0 0 0 0 0 0 0 0 1 1 1 1 1 1 1 1 1 1 0 0 0
0 0 0 0 0 0 0 0 0 0 0 0 0 0 0 0 0 0 0 0 0 0 0 0 0 0 0 0 0 0 0 0 1 1 1 1 1 1 1 1 1 1 1 0
0 0 0 0 0 0 0 0 0 0 0 0 0 0 0 0 0 0 0 0 0 0 0 0 0 0 0 0 0 0 0 0 0 0 1 1 1 1 1 1 1 1 1 1
0 0 0 0 0 0 0 0 0 0 0 0 0 0 0 0 0 0 0 0 0 0 0 0 0 0 0 0 0 0 0 0 0 0 0 0 1 1 1 1 1 1 1 1
0 0 0 0 0 0 0 0 0 0 0 0 0 0 0 0 0 0 0 0 0 0 0 0 0 0 0 0 0 0 0 0 0 0 0 0 0 0 0 0 0 0 0 0
0 0 0 0 0 0 0 0 0 0 0 0 0 0 0 0 0 0 0 0 0 0 0 0 0 0 0 0 0 0 0 0 0 0 0 0 0 0 0 0 0 0 0 0
0 0 0 0 0 0 0 0 0 0 0 0 0 0 0 0 0 0 0 0 0 0 0 0 0 0 0 0 0 0 0 0 0 0 0 0 0 0 0 0 0 0 0 0
0 0 0 0 0 0 0 0 0 0 0 0 0 0 0 0 0 0 0 0 0 0 0 0 0 0 0 0 0 0 0 0 0 0 0 0 0 0 0 0 0 0 0 0
0 0 0 0 0 0 0 0 0 0 0 0 0 0 0 0 0 0 0 0 0 0 0 0 0 0 0 0 0 0 0 0 0 0 0 0 0 0 0 0 0 0 0 0
0 0 0 0 0 0 0 0 0 0 0 0 0 0 0 0 0 0 0 0 0 0 0 0 0 0 0 0 0 0 0 0 0 0 0 0 0 0 0 0 0 0 0 0
0 0 0 0 0 0 0 0 0 0 0 0 0 0 0 0 0 0 0 0 0 0 0 0 0 0 0 0 0 0 0 0 0 0 0 0 0 0 0 0 0 0 0 0
0 0 0 0 0 0 0 0 0 0 0 0 0 0 0 0 0 0 0 0 0 0 0 0 0 0 0 0 0 0 0 0 0 0 0 0 0 0 0 0 0 0 0 0
0 0 0 0 0 0 0 0 0 0 0 0 0 0 0 0 0 0 0 0 0 0 0 0 0 0 0 0 0 0 0 0 0 0 0 0 0 0 0 0 0 0 0 0
0 0 0 0 0 0 0 0 0 0 0 0 0 0 0 0 0 0 0 0 0 0 0 0 0 0 0 0 0 0 0 0 0 0 0 0 0 0 0 0 0 0 0 0
0 0 0 0 0 0 0 0 0 0 0 0 0 0 0 0 0 0 0 0 0 0 0 0 0 0 0 0 0 0 0 0 0 0 0 0 0 0 0 0 0 0 0 0
0 0 0 0 0 0 0 0 0 0 0 0 0 0 0 0 0 0 0 0 0 0 0 0 0 0 0 0 0 0 0 0 0 0 0 0 0 0 0 0 0 0 0 0
0 0 0 0 0 0 0 0 0 0 0 0 0 0 0 0 0 0 0 0 0 0 0 0 0 0 0 0 0 0 0 0 0 0 0 0 0 0 0 0 0 0 0 0
0 0 0 0 0 0 0 0 0 0 0 0 0 0 0 0 0 0 0 0 0 0 0 0 0 0 0 0 0 0 0 0 0 0 0 0 0 0 0 0 0 0 0 0
0 0 0 0 0 0 0 0 0 0 0 0 0 0 0 0 0 0 0 0 -0 0 0 0 0 0 0 0 0 0 0 0 0 0 0 0 0 0 0 0 0 0 0 0
0 0 0 0 0 0 0 0 0 0 0 0 0 0 0 0 0 0 0 0 0 0 0 0 0 0 0 0 0 0 0 0 0 0 0 0 0 0 0 0 0 0 0 0
0 0 0 0 0 0 0 0 0 0 0 0 0 0 0 0 0 0 0 0 0 0 0 0 0 0 0 0 0 0 0 0 0 0 0 0 0 0 0 0 0 0 0 0
0 0 0 0 0 0 0 0 0 0 0 0 0 0 0 0 0 0 0 0 0 0 0 0 0 0 0 0 0 0 0 0 0 0 0 0 0 0 0 0 0 0 0 0
Wind_Speed
4 4 6 7 7 4 5 9 10 8 7 11 15 15 11 8 9 11 12 12 12 12 9 7 6 6 7 8 10 11 11 11 9 7 7 6 6 6 6 5 7 8 8 9
5 4 4 4 4 4 5 8 9 5 6 9 11 14 13 12 12 12 12 12 12 11 10 8 6 6 7 8 9 10 10 10 10 8 7 5 5 5 5 5 6 8 8 8
4 2 4 7 6 7 8 9 9 7 4 5 7 12 16 15 14 13 13 12 12 12 12 10 8 7 6 7 8 8 9 9 9 9 5 4 3 3 4 6 6 7 8 8
3 3 5 6 6 7 7 7 7 7 7 5 9 9 14 15 16 17 16 14 13 12 11 10 8 8 7 6 6 7 7 8 8 8 8 8 7 7 7 5 5 6 7 7
3 4 6 7 6 6 3 4 7 7 6 4 8 8 8 10 16 19 18 17 15 13 12 11 9 8 6 5 5 5 6 7 7 8 9 9 8 6 4 5 6 6 6 6
1 2 3 3 3 4 3 5 5 4 3 7 11 11 8 9 14 15 15 15 14 12 12 10 8 6 5 5 5 5 6 6 6 8 8 9 9 8 7 7 6 5 4 4
2 3 3 3 5 5 6 6 5 6 7 7 7 10 9 5 7 10 10 11 10 10 10 10 9 8 7 6 6 6 7 6 6 7 7 7 8 8 9 7 7 6 4 4
3 4 5 5 5 6 7 6 4 5 6 4 7 10 6 2 4 6 7 7 7 9 9 9 8 7 7 7 7 7 7 6 6 6 5 5 5 4 4 5 4 4 3 3
3 2 3 4 3 4 6 5 3 2 0 3 6 6 7 4 5 6 6 6 7 7 7 7 7 7 6 7 7 7 7 6 5 5 5 4 4 3 3 3 3 2 2 2
1 2 3 4 4 2 3 3 3 4 4 5 5 7 5 5 5 4 4 4 4 5 6 6 6 6 6 6 6 6 6 6 5 4 4 3 3 2 2 2 2 2 2 2
2 2 3 4 6 7 6 5 4 3 3 3 4 3 1 2 2 3 2 2 3 4 4 5 5 6 7 7 6 6 5 5 5 4 4 4 3 3 3 2 2 1 1 1
2 1 2 2 1 3 6 7 7 4 4 4 3 0 2 2 2 2 2 1 2 3 4 5 6 7 7 7 6 6 5 5 4 4 4 3 3 3 3 2 2 1 1 1
2 2 2 3 4 4 5 6 7 4 3 4 5 2 2 0 0 0 2 2 3 4 5 5 6 6 7 7 6 6 5 4 4 4 4 4 3 3 3 3 2 2 2 2
1 2 3 3 1 4 5 7 8 7 5 6 8 6 4 3 2 1 2 3 3 4 5 6 6 6 6 6 6 5 5 4 4 4 4 4 3 3 3 3 3 2 2 2
2 2 3 4 4 5 7 8 11 12 10 8 8 9 9 7 6 5 5 4 4 5 6 6 6 6 6 6 6 5 5 5 5 5 4 4 3 3 3 3 3 3 3 3
3 3 3 3 3 5 7 9 12 12 12 13 12 12 9 8 7 7 7 7 7 7 7 7 7 7 7 7 7 6 6 5 5 5 5 4 4 4 4 3 3 3 3 3
3 3 3 3 3 4 5 7 11 9 9 10 11 10 8 8 7 7 7 7 7 7 7 7 8 8 7 7 7 7 6 6 6 5 5 5 5 5 4 4 4 3 3 3
5 4 2 3 3 4 2 3 5 7 8 9 10 10 9 8 6 5 5 6 6 6 7 7 7 7 6 6 6 6 6 6 6 6 6 6 6 5 5 4 4 4 3 3
7 4 2 2 3 4 3 2 3 4 4 5 7 7 6 4 3 2 2 3 4 5 4 4 4 5 5 6 6 7 6 6 6 6 6 6 6 6 6 5 5 4 3 3
4 4 3 3 3 3 3 5 3 3 2 5 5 5 4 2 2 2 4 3 2 1 1 2 3 4 5 5 6 7 6 7 7 6 6 6 6 6 6 6 5 4 4 4
1 2 3 4 4 3 4 6 2 3 3 6 5 5 3 1 3 4 4 4 3 2 2 2 3 3 3 5 6 6 6 6 5 5 5 6 6 6 6 5 5 5 4 4
3 2 3 3 4 2 4 3 1 4 5 5 5 5 3 2 2 3 3 3 3 3 3 2 2 2 3 4 5 5 5 4 4 5 5 6 6 5 5 6 5 5 5 5
3 3 3 3 3 4 4 4 5 5 5 5 5 4 3 2 2 2 2 2 2 3 2 2 2 2 2 3 4 4 3 4 5 5 6 6 6 6 6 6 6 5 5 5
2 3 4 5 5 6 5 5 5 5 6 6 6 5 3 2 2 1 1 1 2 2 2 1 1 0 1 2 3 3 3 4 5 6 6 5 6 6 6 5 5 5 6 5
6 5 5 6 6 8 6 6 7 7 6 6 5 4 3 2 2 2 1 1 1 1 1 1 1 1 1 2 2 3 3 5 6 6 5 5 6 6 6 5 5 6 6 6
4 4 5 5 6 7 9 9 9 8 7 7 6 5 3 3 2 2 2 2 2 1 1 1 2 2 2 2 3 3 3 5 6 5 5 5 5 5 5 5 4 7 6 8
Wind_Direction
151 183 191 192 208 234 206 200 198 199 190 207 221 227 228 226 228 225 221 218 218 220 214 205 201 199 196 200 204 204 201 199 190 185 188 193 201 200 202 206 210 208 209 207
150 196 198 185 203 204 209 203 193 182 195 214 227 234 233 233 234 233 229 224 220 215 211 205 198 193 191 192 200 202 202 196 192 192 192 197 198 204 207 203 212 212 212 209
174 128 163 185 191 186 205 208 194 179 166 216 226 237 230 229 232 234 234 234 230 222 218 210 202 196 191 191 196 199 197 192 192 192 186 175 180 185 197 207 210 214 212 212
177 186 177 187 202 199 202 206 199 187 192 200 209 234 222 220 224 226 227 225 227 223 221 216 210 204 196 193 190 199 194 191 191 190 192 196 202 210 211 206 208 210 213 216
170 176 184 196 202 198 193 183 188 192 207 224 211 236 230 206 224 225 225 224 224 224 222 217 213 209 203 189 187 193 191 192 189 193 198 204 213 219 211 204 209 211 210 215
165 173 198 200 180 186 156 144 142 169 206 231 212 222 239 209 222 222 221 222 224 224 223 218 212 204 200 185 181 188 186 189 191 194 200 206 211 211 208 209 211 212 210 212
158 180 184 171 159 181 196 170 164 182 203 225 186 216 244 230 230 233 230 225 223 220 218 212 206 201 196 188 183 185 184 185 188 193 201 209 216 217 217 216 216 215 213 213
173 168 181 185 193 181 197 216 224 204 196 179 184 225 237 249 254 251 248 244 236 224 217 212 205 200 193 186 181 178 181 179 180 187 192 199 206 213 218 219 219 217 217 215
197 145 149 179 177 181 180 208 275 310 189 202 206 237 260 233 232 233 233 230 226 220 214 208 196 189 184 179 178 174 171 168 168 172 175 177 183 190 193 197 206 211 209 209
261 153 157 155 161 193 220 173 190 209 209 211 210 230 221 194 206 215 223 223 220 213 205 195 182 172 166 164 162 159 161 158 154 154 149 148 148 150 159 171 181 188 186 195
233 182 144 168 197 190 179 184 211 218 264 254 212 192 71 252 250 244 237 232 218 199 188 179 167 160 155 154 156 152 152 149 147 146 143 142 136 136 142 144 150 160 163 181
224 220 176 199 194 224 221 212 203 216 212 247 260 187 65 294 296 269 249 228 195 178 171 165 159 158 158 158 157 155 156 152 148 146 146 139 134 134 135 129 119 122 130 123
180 200 177 169 177 185 218 219 216 227 240 229 234 211 94 27 16 207 216 197 171 169 168 165 165 167 166 164 161 161 160 155 150 149 146 141 139 137 130 120 112 108 110 110
224 243 251 244 239 181 206 210 210 213 230 240 244 253 254 265 267 257 230 224 205 185 183 179 176 176 174 171 169 167 163 157 152 150 150 149 145 137 128 119 113 108 108 108
302 270 259 271 261 232 233 222 216 222 235 249 258 260 266 273 273 270 258 247 229 211 200 194 191 186 181 178 176 173 168 163 160 160 160 157 147 140 136 131 123 118 114 108
324 287 275 273 260 240 248 238 230 234 242 250 261 268 272 278 273 263 254 241 231 225 216 209 203 200 194 189 185 180 177 170 170 171 169 160 157 154 152 146 138 134 128 121
304 291 283 285 289 265 266 252 233 231 233 241 252 265 277 273 265 262 257 244 236 232 225 217 211 207 203 196 189 185 179 171 175 177 173 170 168 165 162 155 152 148 139 130
270 281 281 290 271 258 311 317 260 246 254 253 261 272 277 279 290 297 282 259 245 235 228 221 214 209 202 192 185 180 173 174 179 181 180 177 175 172 167 165 164 157 148 145
230 258 271 268 265 272 298 307 276 247 272 290 274 278 283 282 270 284 320 285 262 249 238 226 214 203 191 184 177 173 176 181 186 190 187 183 180 177 175 175 171 162 156 153
201 239 259 260 268 279 342 344 330 257 275 354 325 308 302 276 255 358 16 357 339 304 226 198 180 173 175 171 169 175 182 189 198 196 188 182 182 182 182 179 173 169 166 164
217 234 246 256 261 280 337 327 280 243 358 351 340 329 322 295 329 358 2 10 17 35 72 122 144 153 158 160 171 184 191 203 199 186 181 180 182 183 180 175 174 171 169 165
275 255 239 244 241 264 1 357 330 335 339 337 339 339 337 342 359 1 11 24 35 48 64 90 117 122 138 164 178 191 204 196 179 178 181 180 180 176 174 173 173 174 173 173
265 284 293 274 287 337 331 317 325 326 316 326 331 333 330 335 353 357 8 23 33 40 48 56 92 115 144 180 197 206 199 178 177 181 185 182 179 178 178 179 178 177 183 188
295 308 279 279 286 307 315 329 332 333 323 322 322 322 321 318 329 344 359 13 22 23 29 36 69 143 187 201 218 220 195 184 184 188 186 183 183 184 183 185 188 190 193 195
291 295 283 278 298 307 306 327 333 333 335 336 333 327 319 311 312 317 312 324 336 346 350 329 275 265 263 239 232 220 199 191 193 194 192 190 192 190 190 195 202 204 206 204
259 274 285 291 314 301 303 314 315 311 313 315 314 317 323 309 294 301 295 303 304 304 311 298 287 279 273 257 243 224 206 198 197 198 199 197 194 194 195 194 204 217 221 218